History for IHAMILTO1123

Hill Crescent, Pembroke, BM, Hamilton, — Current Conditions
Daily Summary for September 21, 2018
  Current: High: Low: Average:
Temperature: 83.5°F 87.3°F 77.6°F 82.4°F
Dew Point: 74.0°F 77.0°F 72.0°F 74.5°F
Humidity: 74% 86% 70% 80%
Wind Speed: 14.0mph 22.0mph - 9.0mph
Wind Gust: - 22.0mph - -
Wind: NNE - - NNE
Pressure: 30.10in 30.11in 29.99in -
Precipitation: 0.03in      
Statistics for the rest of the month
    High: Low: Average:
Temperature:   93.9°F 70.9°F 83.6°F
Dew Point:   77.0°F 62.0°F 71.6°F
Humidity:   90.0% 45.0% 71.4%
Wind Speed:   22.0mph from the ENE - 4.7mph
Wind Gust:   22.0mph from the NE - -
Wind:   - - SSE
Pressure:   30.43in 29.98in -
Precipitation:   4.99in    
IHAMILTO1123 Weather Graph
Tabular Data for September 21, 2018
Time Temp. Heat Index Dew Point Pressure Wind Gust Humidity Rainfall
00:03 78.8°F - 73°F 30.03in - 83% 0in
00:09 78.5°F - 73°F 30.03in - 85% 0in
00:12 78.5°F - 73°F 30.03in - 85% 0in
00:17 78.8°F - 73°F 30.03in - 85% 0in
00:24 78.8°F - 73°F 30.03in - 85% 0in
00:29 78.8°F - 73°F 30.03in - 85% 0in
00:34 78.8°F - 73°F 30.03in - 83% 0in
00:39 79°F - 73°F 30.03in - 83% 0in
00:44 79.3°F - 73°F 30.03in - 83% 0in
00:49 78.4°F - 73°F 30.02in - 83% 0in
00:52 78.4°F - 73°F 30.02in - 83% 0in
00:59 78.4°F - 73°F 30.02in - 86% 0in
01:03 77.6°F - 73°F 30.02in - 86% 0in
01:09 77.8°F - 73°F 30.03in - 86% 0in
01:14 78.3°F - 73°F 30.02in - 86% 0in
01:18 78.5°F - 74°F 30.02in - 86% 0in
01:24 78.5°F - 74°F 30.02in - 86% 0in
01:29 78.8°F - 74°F 30.02in - 86% 0in
01:33 78.8°F - 73°F 30.02in - 85% 0in
01:42 79°F - 73°F 30.01in - 83% 0in
01:48 79.3°F - 73°F 30.01in - 83% 0in
01:54 79.4°F - 73°F 30.01in - 83% 0in
01:59 79.4°F - 73°F 30.01in - 83% 0in
02:03 79.4°F - 73°F 30.02in - 83% 0in
02:05 79.4°F - 73°F 30.01in - 83% 0in
02:14 79.9°F - 74°F 30.01in - 83% 0in
02:19 79.9°F - 74°F 30.01in - 83% 0in
02:24 79.4°F - 73°F 30.01in - 83% 0.01in
02:29 78.5°F - 73°F 30.01in - 83% 0.01in
02:33 78.3°F - 73°F 30.01in - 85% 0.01in
02:39 78.5°F - 74°F 30.01in - 86% 0.01in
02:43 78.8°F - 74°F 30.01in - 86% 0.01in
02:47 78.8°F - 74°F 30.01in - 86% 0.01in
02:54 79°F - 74°F 30.00in - 86% 0.01in
02:59 79.1°F - 74°F 30.00in - 86% 0.01in
03:04 79.1°F - 74°F 30.00in - 86% 0in
03:09 79.1°F - 74°F 30.00in - 85% 0in
03:14 79.4°F - 74°F 30.00in - 85% 0in
03:17 79.6°F - 74°F 29.99in - 83% 0in
03:24 79.6°F - 74°F 30.00in - 83% 0in
03:29 79.6°F - 74°F 29.99in - 83% 0in
03:34 79.6°F - 74°F 30.00in - 85% 0in
03:39 79.3°F - 74°F 30.00in - 85% 0in
03:43 79.1°F - 74°F 29.99in - 85% 0in
03:49 79.1°F - 74°F 29.99in - 85% 0in
03:54 79°F - 74°F 30.00in - 85% 0.01in
03:58 79.1°F - 74°F 30.00in - 86% 0.01in
04:02 79.1°F - 74°F 29.99in - 86% 0in
04:09 79°F - 74°F 29.99in - 86% 0in
04:14 79°F - 74°F 30.00in - 86% 0in
04:19 78.8°F - 73°F 30.00in - 85% 0in
04:24 79.1°F - 74°F 30.00in - 85% 0in
04:28 79.1°F - 74°F 30.00in - 85% 0in
04:33 79°F - 73°F 30.00in - 83% 0in
04:38 79°F - 73°F 29.99in - 83% 0in
04:42 79.1°F - 73°F 30.00in - 83% 0in
04:48 79.1°F - 73°F 30.00in - 83% 0in
04:54 79.3°F - 74°F 30.00in - 83% 0in
04:58 79.1°F - 73°F 30.00in - 83% 0in
05:04 79.3°F - 74°F 30.00in - 83% 0in
05:07 79.3°F - 74°F 30.00in - 83% 0in
05:14 79.3°F - 74°F 30.00in - 85% 0in
05:19 78.4°F - 73°F 30.00in - 83% 0in
05:24 79°F - 73°F 30.00in - 83% 0in
05:29 79.1°F - 74°F 30.01in - 85% 0in
05:30 79.1°F - 74°F 30.00in - 85% 0in
05:38 79.3°F - 74°F 30.00in - 85% 0in
05:43 79.3°F - 74°F 30.00in - 85% 0in
05:49 79.6°F - 74°F 30.00in - 85% 0in
05:52 79.6°F - 74°F 30.00in - 85% 0in
06:03 79.6°F - 74°F 30.01in - 85% 0in
06:09 79.9°F - 74°F 30.01in - 83% 0in
06:14 80.1°F 84.7°F 74°F 30.01in - 83% 0in
06:17 80.1°F 84.7°F 74°F 30.00in - 83% 0in
06:24 79.9°F - 74°F 30.01in - 85% 0in
06:29 80.1°F 85.0°F 75°F 30.01in - 85% 0.01in
06:34 79.1°F - 74°F 30.01in - 86% 0.01in
06:39 79°F - 74°F 30.01in - 86% 0.01in
06:44 78.4°F - 74°F 30.01in - 86% 0.01in
06:49 78.5°F - 74°F 30.02in - 86% 0.01in
06:54 78.5°F - 74°F 30.02in - 86% 0.01in
06:59 79.3°F - 75°F 30.02in - 86% 0.01in
07:03 79.4°F - 75°F 30.02in - 86% 0in
07:09 79.6°F - 74°F 30.02in - 85% 0in
07:12 79.9°F - 74°F 30.02in - 83% 0in
07:18 80.1°F 84.7°F 74°F 30.02in - 83% 0in
07:24 80.1°F 84.7°F 74°F 30.02in - 83% 0in
07:29 80.1°F 84.7°F 74°F 30.03in - 83% 0in
07:34 80.5°F 85.3°F 74°F 30.03in - 83% 0in
07:37 81°F 86.8°F 75°F 30.03in - 83% 0in
07:44 80.1°F 84.7°F 74°F 30.03in - 83% 0in
07:49 80.5°F 85.3°F 74°F 30.03in - 83% 0in
07:54 81.7°F 88.1°F 75°F 30.04in - 81% 0in
07:59 81.9°F 88.3°F 75°F 30.03in - 81% 0in
08:04 82.1°F 88.8°F 75°F 30.04in - 80% 0in
08:08 82.1°F 88.8°F 75°F 30.04in - 80% 0in
08:14 81.4°F 87.6°F 75°F 30.04in - 81% 0in
08:19 81.9°F 88.3°F 75°F 30.05in - 81% 0in
08:22 81.9°F 88.3°F 75°F 30.05in - 81% 0in
08:27 82.3°F 89.0°F 75°F 30.05in - 81% 0in
08:34 82.1°F 88.8°F 75°F 30.05in - 81% 0in
08:39 82.3°F 89.0°F 75°F 30.05in - 81% 0in
08:43 81.9°F 88.3°F 75°F 30.05in - 81% 0in
08:49 82.8°F 90.8°F 76°F 30.05in - 81% 0in
08:53 82.6°F 89.7°F 75°F 30.05in - 80% 0in
08:59 81.9°F 88.3°F 75°F 30.06in - 80% 0in
09:03 81°F 86.2°F 74°F 30.06in - 81% 0in
09:08 81.4°F 87.6°F 75°F 30.06in - 81% 0in
09:14 82.3°F 89.8°F 76°F 30.06in - 81% 0in
09:16 83°F 91.0°F 76°F 30.06in - 80% 0in
09:23 81.9°F 88.3°F 75°F 30.07in - 80% 0in
09:29 81°F 86.2°F 74°F 30.07in - 80% 0in
09:33 81.9°F 87.8°F 74°F 30.07in - 79% 0in
09:39 83.6°F 92.2°F 76°F 30.07in - 78% 0in
09:43 83°F 90.4°F 75°F 30.07in - 78% 0in
09:48 82.8°F 89.9°F 75°F 30.07in - 79% 0in
09:53 81.9°F 88.3°F 75°F 30.07in - 80% 0in
09:59 81.3°F 86.7°F 74°F 30.07in - 80% 0in
10:04 82.3°F 89.0°F 75°F 30.07in - 79% 0in
10:09 82.1°F 88.8°F 75°F 30.08in - 79% 0in
10:14 82.6°F 89.7°F 75°F 30.08in - 79% 0in
10:17 83.6°F 91.2°F 75°F 30.08in - 76% 0in
10:23 83.5°F 91.0°F 75°F 30.09in - 75% 0in
10:28 83.5°F 91.0°F 75°F 30.09in - 78% 0in
10:34 81°F 85.9°F 73°F 30.10in 20mph 79% 0in
10:38 83.2°F 90.6°F 75°F 30.10in - 78% 0in
10:44 85.5°F 95.1°F 76°F 30.09in - 74% 0in
10:48 85.5°F 95.1°F 76°F 30.09in - 75% 0in
10:52 85.5°F 95.1°F 76°F 30.10in - 74% 0in
10:59 87.3°F 98.9°F 77°F 30.10in - 71% 0in
11:04 86.7°F 96.8°F 76°F 30.10in - 70% 0in
11:09 84.2°F 93.0°F 76°F 30.10in - 76% 0in
11:10 83.8°F 91.7°F 75°F 30.10in - 76% 0in
11:19 84.2°F 93.0°F 76°F 30.10in - 76% 0in
11:24 83.5°F 91.0°F 75°F 30.10in - 78% 0in
11:28 83.8°F 92.4°F 76°F 30.10in 20mph 78% 0in
11:33 83.8°F 92.4°F 76°F 30.10in - 78% 0in
11:38 83.8°F 91.7°F 75°F 30.10in - 76% 0in
11:44 85.1°F 94.5°F 76°F 30.10in - 75% 0in
11:49 86.4°F 97.5°F 77°F 30.11in - 74% 0in
11:53 85.5°F 95.1°F 76°F 30.11in - 74% 0in
11:59 85.3°F 95.0°F 76°F 30.11in - 74% 0in
12:03 85.3°F 95.0°F 76°F 30.11in - 75% 0in
12:09 86.4°F 95.6°F 75°F 30.10in - 70% 0in
12:14 87.1°F 97.3°F 76°F 30.11in - 70% 0in
12:18 87.1°F 97.3°F 76°F 30.10in - 70% 0in
12:23 87.3°F 97.8°F 76°F 30.11in - 70% 0in
12:29 86°F 96.0°F 76°F 30.10in - 73% 0in
12:32 86.9°F 97.3°F 76°F 30.11in - 70% 0in
12:39 86.7°F 96.8°F 76°F 30.10in 21mph 71% 0in
12:42 86.4°F 96.5°F 76°F 30.10in - 71% 0in
12:48 86°F 96.0°F 76°F 30.11in - 73% 0in
12:54 85.5°F 95.1°F 76°F 30.11in - 74% 0in
12:58 85.7°F 95.6°F 76°F 30.11in - 73% 0in
13:04 85.1°F 93.7°F 75°F 30.11in - 73% 0in
13:08 86.4°F 96.5°F 76°F 30.11in - 71% 0in
13:14 85.7°F 95.6°F 76°F 30.11in - 73% 0in
13:16 86.1°F 96.2°F 76°F 30.11in - 71% 0in
13:24 86.4°F 95.6°F 75°F 30.10in - 70% 0in
13:28 86.7°F 95.9°F 75°F 30.11in - 70% 0in
13:32 86.4°F 95.6°F 75°F 30.11in - 70% 0in
13:38 85.7°F 94.3°F 75°F 30.11in - 71% 0in
13:44 85.1°F 93.7°F 75°F 30.11in - 74% 0in
13:48 84.8°F 94.2°F 76°F 30.10in - 75% 0in
13:54 86.1°F 96.2°F 76°F 30.11in - 71% 0in
13:56 86.4°F 96.5°F 76°F 30.10in - 71% 0in
14:03 86.1°F 96.2°F 76°F 30.11in - 71% 0in
14:09 87.3°F 97.8°F 76°F 30.10in - 70% 0in
14:13 86.9°F 96.4°F 75°F 30.10in - 70% 0in
14:19 86.4°F 96.5°F 76°F 30.11in - 71% 0in
14:29 86.7°F 96.8°F 76°F 30.10in - 70% 0in
14:33 86.4°F 95.6°F 75°F 30.09in - 70% 0in
14:39 85.7°F 95.6°F 76°F 30.09in - 73% 0in
14:44 85.7°F 94.3°F 75°F 30.09in - 71% 0in
14:49 85.7°F 94.3°F 75°F 30.09in - 70% 0in
14:53 86.4°F 95.6°F 75°F 30.10in - 70% 0in
14:59 85.5°F 94.3°F 75°F 30.09in - 71% 0in
15:03 83.9°F 91.6°F 75°F 30.09in - 75% 0in
15:09 84.6°F 91.8°F 74°F 30.09in - 71% 0in
15:12 84.6°F 91.8°F 74°F 30.09in - 71% 0in
15:19 84.8°F 93.0°F 75°F 30.09in - 73% 0in
15:24 85.5°F 94.3°F 75°F 30.10in - 70% 0in
15:27 85.5°F 94.3°F 75°F 30.10in 20mph 71% 0in
15:34 84.4°F 92.4°F 75°F 30.09in - 74% 0in
15:39 84.2°F 92.3°F 75°F 30.09in - 75% 0in
15:44 83.9°F 91.6°F 75°F 30.09in - 75% 0in
15:49 83.2°F 90.6°F 75°F 30.09in - 76% 0in
15:54 82.8°F 89.9°F 75°F 30.10in - 78% 0in
15:55 82.1°F 88.0°F 74°F 30.09in - 78% 0in
16:04 82.3°F 89.0°F 75°F 30.10in - 79% 0in
16:07 83°F 90.4°F 75°F 30.09in - 78% 0in
16:12 84.4°F 92.4°F 75°F 30.10in - 75% 0in
16:19 85.3°F 93.8°F 75°F 30.10in - 71% 0in
16:24 83.8°F 90.7°F 74°F 30.10in - 74% 0in
Comma Delimited File
Powered by Weather Underground, Inc.